Theta_e
318 315 314 314 314 316 317 318 318 316 320 334 337 336 338 339 341 343 344 346 346 346 346 346 346 346 346 346 345 345 347 348 349 347 349 346 343 341 331 321 315 314 312 312
316 316 315 315 315 316 317 317 316 316 323 329 332 337 339 335 341 343 344 345 346 346 346 345 344 343 343 342 343 344 346 349 348 346 345 345 343 331 322 316 314 314 313 312
317 318 319 319 318 319 317 319 317 319 323 324 335 336 341 339 342 343 344 344 345 345 345 344 344 344 342 339 338 338 341 345 345 345 345 344 336 324 318 316 315 315 314 313
317 318 319 319 318 316 318 317 319 323 323 323 327 337 325 338 341 341 342 343 344 345 344 343 344 343 341 338 336 334 336 342 344 342 340 334 325 320 316 316 316 316 315 314
319 319 319 320 319 318 318 317 319 322 320 321 321 320 318 327 334 339 339 342 343 344 343 343 344 342 339 335 331 328 331 333 329 331 329 328 323 321 316 317 317 317 316 315
318 320 320 320 321 319 320 320 316 315 315 319 319 318 317 317 327 337 336 341 343 343 344 344 343 341 336 333 327 322 328 332 327 327 329 327 325 317 316 317 317 317 317 316
318 320 320 321 322 320 317 317 318 319 317 321 317 318 319 321 322 321 330 338 342 342 343 343 342 338 335 331 326 319 324 328 327 329 330 323 318 315 316 316 316 317 317 317
318 320 322 323 322 320 320 317 317 320 318 317 317 321 322 326 327 333 329 332 341 340 343 342 342 338 334 330 325 318 319 319 319 320 319 318 316 315 316 315 316 318 318 317
318 319 321 322 322 320 320 319 316 316 317 320 319 324 326 326 332 337 338 339 339 339 339 341 341 336 332 329 324 318 318 318 317 317 317 318 315 316 316 315 317 319 318 320
319 320 321 324 322 321 319 317 321 316 323 324 320 323 324 327 330 336 336 337 337 336 336 341 339 336 333 330 326 319 317 316 316 316 315 316 317 318 319 317 318 319 320 320
317 318 320 324 323 321 321 319 315 316 318 322 323 322 320 325 324 332 334 337 338 338 340 341 338 336 333 329 326 323 317 316 316 316 316 317 318 319 319 320 321 321 321 321
319 316 319 322 321 321 320 321 317 319 320 318 318 318 318 322 323 327 334 337 337 338 340 340 339 336 332 329 327 325 319 317 317 318 319 319 320 321 322 322 322 322 322 320
321 318 318 319 319 320 324 321 317 316 315 320 321 320 320 323 324 326 326 333 336 338 337 336 336 335 332 329 327 325 323 320 320 321 322 323 322 322 322 322 322 321 319 317
322 317 318 320 319 320 323 323 321 320 322 321 320 321 322 321 323 324 328 327 330 334 335 336 334 334 332 329 327 325 324 324 323 324 324 324 323 323 322 322 320 316 314 311
317 320 322 321 320 324 325 325 323 324 322 324 322 321 321 321 320 323 325 326 327 330 332 333 332 332 331 328 327 325 324 325 325 325 325 324 323 323 322 320 317 311 310 308
319 322 323 324 324 324 325 323 323 321 321 321 321 320 318 323 323 323 324 324 326 328 331 332 331 331 329 327 326 325 325 325 325 325 325 324 323 322 320 313 311 310 309 307
321 321 321 322 324 324 325 324 323 323 321 321 321 319 319 319 321 324 325 325 326 328 330 332 332 330 328 326 326 325 324 325 325 326 325 324 322 318 313 311 310 309 308 303
322 319 319 321 324 326 322 322 323 323 323 321 320 320 319 319 321 322 324 325 326 326 329 329 329 329 327 326 325 324 325 325 325 325 324 321 317 313 311 310 309 307 304 303
319 320 323 324 324 323 324 325 324 323 323 321 321 320 322 322 325 326 324 325 326 327 329 329 328 328 327 327 325 325 325 326 324 322 320 315 313 311 310 309 306 303 303 303
319 321 323 322 325 327 324 323 326 324 327 323 322 321 321 324 323 320 325 327 328 328 329 329 328 328 327 327 327 326 325 324 322 319 315 313 311 310 308 305 303 303 301 298
320 321 325 320 322 322 322 325 326 327 326 325 325 324 321 320 322 323 325 328 329 329 329 329 329 328 328 328 327 325 324 321 317 314 313 311 309 307 305 303 302 298 298 297
320 320 319 319 320 322 323 324 325 322 324 325 325 325 325 324 324 323 326 328 328 329 329 329 329 328 327 326 325 322 319 317 315 313 311 309 307 305 302 301 299 298 300 300
320 319 320 320 319 318 324 325 326 325 325 325 325 324 325 325 325 325 327 328 326 327 326 327 327 326 324 322 319 318 317 316 312 310 309 307 306 303 302 300 300 301 301 301
319 320 318 322 320 323 324 325 325 325 325 325 326 325 325 326 325 325 325 324 323 323 325 326 324 321 319 318 318 317 315 312 310 309 307 306 305 302 301 301 301 302 302 303
318 319 320 320 320 325 323 322 323 324 323 323 324 325 326 326 326 325 325 324 323 323 324 323 321 319 318 317 315 314 313 311 309 308 307 306 304 302 302 301 302 303 303 303
316 317 320 321 321 319 319 319 320 322 321 320 320 322 326 326 325 325 324 324 323 323 322 320 318 319 317 315 313 312 311 310 309 307 306 305 304 303 302 302 303 302 302 303
Wind_Speed
4 5 4 6 3 3 1 2 3 5 9 11 20 6 13 17 18 20 24 30 30 29 27 26 27 26 25 23 19 17 16 14 11 11 11 7 7 5 1 4 6 9 11 11
6 4 9 5 4 4 3 2 7 9 6 7 10 17 10 15 23 34 32 31 34 30 28 26 24 23 22 20 18 16 15 13 10 11 11 10 7 4 3 7 8 11 12 14
5 6 4 2 4 3 3 2 4 7 5 4 9 5 4 7 12 19 23 32 37 38 33 27 25 23 21 19 18 18 17 16 16 15 14 12 8 6 5 9 11 13 13 13
5 4 3 5 7 8 4 7 6 4 3 4 2 4 5 11 14 14 25 30 38 38 32 30 28 25 21 19 17 16 17 17 16 15 13 8 6 4 8 8 9 10 11 12
7 5 6 5 8 7 11 7 8 3 3 4 1 3 6 6 11 17 22 36 39 42 37 35 31 24 19 16 15 16 16 16 15 14 11 10 8 5 7 7 6 8 9 10
6 5 4 8 5 7 5 5 7 5 3 2 4 5 5 6 16 24 27 36 43 41 40 37 31 24 19 16 16 17 18 19 17 16 14 10 8 8 8 7 4 4 6 8
5 4 5 6 2 3 6 7 2 3 3 5 4 3 8 6 9 9 20 37 46 42 44 42 35 29 23 17 16 18 20 21 21 19 17 14 12 12 9 7 3 2 4 6
2 7 3 1 4 6 0 7 6 6 4 5 4 5 5 6 12 8 16 32 31 37 46 45 38 32 26 21 19 21 21 21 22 20 19 16 13 12 9 6 4 4 5 7
5 6 4 3 4 8 5 3 4 7 4 3 3 4 7 6 6 11 13 24 28 36 43 44 37 33 25 23 19 21 23 23 20 19 19 17 15 12 9 6 7 7 6 6
7 2 4 4 1 5 7 8 3 3 4 3 4 4 5 5 4 4 10 22 27 29 33 39 40 36 29 23 20 22 24 25 24 22 19 17 15 12 9 8 8 7 6 8
4 3 8 2 3 6 1 2 6 5 4 6 2 6 7 9 9 11 15 28 35 38 42 45 43 37 31 29 25 23 27 28 27 24 22 20 17 15 12 11 8 7 9 11
4 5 6 8 5 3 7 6 6 5 3 0 3 6 6 9 10 18 24 29 33 37 44 45 44 40 39 35 32 28 30 30 27 24 20 17 16 16 13 12 10 10 11 12
4 1 1 8 6 5 3 5 5 5 4 7 5 7 3 3 6 22 24 29 34 38 41 43 44 43 43 41 38 33 31 29 26 22 20 20 19 16 14 15 13 11 10 12
3 4 6 8 8 3 3 5 5 6 4 5 6 6 6 7 8 16 27 28 32 37 42 45 45 47 47 44 42 38 33 29 26 23 21 21 18 19 18 16 11 6 9 10
5 4 5 5 6 3 4 2 4 5 5 6 7 9 9 9 10 23 26 29 29 32 38 44 44 49 50 47 44 40 35 30 26 24 22 21 21 22 19 12 5 5 8 13
1 3 1 3 4 5 5 6 9 7 5 5 7 9 11 23 18 18 22 24 28 32 38 41 46 48 49 47 45 39 36 30 26 25 23 24 24 19 14 5 5 7 11 16
3 5 3 5 4 6 7 7 9 6 5 6 8 9 6 8 12 23 24 24 29 36 39 43 46 46 47 45 41 39 35 31 27 23 26 24 20 14 7 4 5 9 14 12
5 5 3 4 1 8 6 5 7 9 5 5 6 7 9 10 13 14 15 19 22 31 37 39 42 42 42 37 35 34 33 29 24 24 23 22 16 10 6 5 7 11 11 4
7 5 2 4 5 5 5 4 5 6 8 6 7 8 14 12 6 10 15 19 24 29 34 38 40 39 33 35 36 34 32 27 24 24 22 17 12 8 6 6 8 5 0 1
5 3 5 4 4 8 4 13 21 4 16 10 6 7 5 7 3 6 19 21 26 29 34 35 32 34 37 35 33 32 30 28 28 24 19 16 13 9 5 4 2 4 1 4
4 2 7 4 6 6 6 10 12 8 9 5 2 2 1 5 12 11 13 21 24 30 32 35 37 40 38 34 33 31 30 28 24 22 19 16 11 5 2 6 7 3 8 7
7 6 4 3 3 8 5 2 7 2 2 3 2 4 7 10 18 18 19 25 29 35 39 40 40 39 36 35 33 29 27 26 24 23 20 16 9 2 7 11 12 13 11 10
6 7 5 8 6 3 3 4 5 4 6 8 6 5 8 10 11 13 22 29 31 32 35 39 39 36 34 31 26 25 28 28 26 23 19 13 9 6 13 15 13 10 7 6
2 3 4 1 2 3 2 2 4 4 4 4 3 3 5 12 14 20 24 28 30 32 34 35 30 34 34 29 26 22 30 28 24 20 16 12 9 12 16 16 10 7 4 2
4 2 3 3 3 2 5 2 4 5 6 6 5 4 7 12 16 19 25 32 37 38 35 31 32 31 29 29 28 27 28 25 23 18 15 16 12 13 17 14 9 6 3 1
5 5 4 5 7 3 7 12 10 11 9 8 8 7 13 14 16 23 29 34 38 42 38 36 36 28 31 29 30 27 24 22 20 17 19 19 14 13 14 12 8 7 5 3
Wind_Direction
29 67 230 243 151 130 120 140 282 249 200 164 218 238 222 184 190 183 177 174 180 179 180 186 192 194 195 201 207 213 214 212 217 216 216 222 243 272 333 43 37 38 41 40
19 262 233 226 187 179 151 11 296 287 144 152 175 228 229 186 199 191 183 184 188 186 187 194 203 209 213 215 213 208 209 210 201 216 223 225 252 195 112 79 77 71 60 50
161 232 76 185 297 341 328 229 256 220 147 68 119 339 198 231 212 206 202 201 196 197 195 199 203 204 206 211 214 213 210 214 205 212 227 230 216 172 120 110 88 72 60 50
229 266 211 213 233 147 243 209 213 243 121 183 148 231 244 216 215 204 205 208 200 200 201 204 204 205 208 211 210 205 201 201 208 217 223 222 186 161 129 110 95 78 67 50
244 296 338 305 235 140 228 172 189 159 121 109 276 102 254 140 228 223 209 211 212 209 211 209 208 207 208 207 208 201 196 195 199 207 196 190 193 176 161 145 115 83 59 41
236 255 202 224 251 177 132 98 52 49 84 59 236 133 283 185 213 227 211 210 213 211 207 212 207 207 202 201 202 203 199 192 190 187 189 199 211 198 186 173 128 73 38 17
333 265 277 216 107 39 81 68 352 341 9 203 159 78 235 266 234 210 223 210 206 200 204 208 201 199 202 201 205 199 197 189 185 186 194 197 200 199 191 184 199 293 337 341
164 322 208 226 148 193 190 147 153 199 207 243 206 227 252 255 308 333 248 217 190 188 207 207 202 203 196 197 201 199 194 191 184 185 191 194 198 200 193 210 237 273 294 320
160 272 288 202 203 147 181 157 179 102 16 74 262 289 332 329 347 76 121 172 182 188 200 203 202 205 195 196 201 203 198 193 192 195 198 202 203 198 204 216 224 242 270 286
218 274 207 270 107 65 162 154 78 16 139 230 290 273 238 252 220 157 153 174 183 188 194 202 207 203 202 203 196 202 202 200 199 200 201 203 200 198 206 222 229 247 264 290
144 121 277 49 182 184 312 100 52 113 127 165 212 262 220 216 199 193 197 189 194 202 206 207 208 207 206 204 198 201 202 202 202 200 197 199 195 195 210 225 238 253 275 290
215 164 226 203 302 239 167 164 133 118 237 174 175 261 215 230 214 206 202 203 207 208 207 210 211 207 208 206 202 202 202 204 205 201 199 195 198 207 213 224 239 254 268 289
180 275 271 330 353 343 208 173 119 116 95 189 169 261 343 245 245 226 217 212 211 211 209 210 212 209 212 209 207 204 203 204 202 198 194 193 202 213 218 217 234 245 274 293
98 145 169 208 216 175 199 185 144 129 129 191 218 270 285 261 246 250 241 233 218 215 212 212 215 213 216 213 210 206 201 201 197 196 197 201 208 219 221 227 229 263 295 306
118 218 182 238 242 198 204 241 154 182 199 168 233 205 243 249 244 250 256 256 228 215 213 216 218 215 216 214 211 207 202 199 197 199 204 207 214 208 210 218 260 284 313 321
38 249 210 279 279 243 237 206 229 213 188 230 229 244 230 251 271 271 261 244 229 222 219 219 217 216 216 213 211 205 202 198 200 204 209 210 209 207 216 234 281 300 319 320
135 135 104 260 283 320 312 205 213 216 192 184 227 239 248 261 248 245 248 225 224 224 221 217 218 216 214 212 208 200 198 197 200 210 206 212 205 209 204 231 280 309 318 323
140 128 139 222 82 257 235 210 201 225 239 215 277 257 244 245 249 256 249 242 231 227 220 215 214 211 208 203 197 197 194 193 199 200 200 194 194 198 202 239 291 309 315 316
174 139 198 192 205 289 305 287 198 173 257 197 226 259 269 257 218 249 236 235 239 224 215 213 211 206 191 195 192 193 191 198 192 187 188 188 192 198 225 271 301 314 138 4
137 90 177 140 201 233 215 219 232 300 271 231 217 268 285 159 157 246 229 226 223 220 213 204 193 181 178 181 184 188 185 184 183 184 183 184 189 202 229 294 167 143 319 340
146 171 214 169 244 282 241 207 198 215 259 137 147 319 131 190 224 293 237 220 219 209 194 186 179 177 177 180 181 180 178 182 182 179 179 180 179 205 275 153 141 104 97 68
187 172 196 144 217 291 343 341 201 266 129 135 168 276 287 272 264 275 234 206 200 194 187 185 180 177 173 174 174 177 180 179 179 180 178 177 177 185 156 150 124 113 96 73
232 207 210 187 210 232 282 258 279 232 228 222 226 231 265 263 251 240 215 202 197 190 184 180 172 168 169 171 176 177 180 183 180 179 176 171 164 157 160 152 136 120 101 65
264 139 199 128 261 226 246 224 260 267 261 222 240 265 275 252 225 202 196 187 184 185 180 172 170 167 168 177 184 187 180 181 181 179 171 169 171 167 167 164 159 144 117 57
221 37 177 267 269 161 200 223 268 272 274 269 253 248 254 229 210 203 194 194 190 182 172 177 181 181 180 179 183 183 182 182 180 180 179 174 166 169 170 170 175 169 160 299
205 197 197 233 224 208 257 302 302 268 261 286 274 260 228 226 221 206 199 200 188 179 181 180 184 190 186 183 180 179 178 180 186 188 178 175 166 167 178 174 175 187 197 219